Regional Weather Roundup
Issued by NWS Goodland, KS

Home | Current Version | Previous Version | Graphics & Text | Print | Product List | Glossary On
Versions: 1 2 3 4 5 6 7 8 9 10 11 12 13 14 15 16 17 18 19 20 21 22 23 24 25 26 27 28 29 30 31 32 33 34 35 36 37 38 39 40 41 42 43 44 45 46 47 48 49 50
000
ASUS43 KGLD 142059
RWRGLD

GOODLAND FORECAST AREA HOURLY WEATHER ROUNDUP
NATIONAL WEATHER SERVICE GOODLAND KS
200 PM MST THU DEC 14 2017

...OFFICIAL OBSERVATIONS...

CITY           SKY/WX    TMP DP  RH WIND       PRES   REMARKS
GOODLAND KS    MOSUNNY   38  26  62 N28G38    30.15R
HILL CITY KS   CLOUDY    43  28  55 N25G31    30.13R
IMPERIAL NEB   CLOUDY    35  31  85 N16       30.17R
MCCOOK NEB     MOSUNNY   40  22  48 N24G32    30.14R
AKRON CO       CLOUDY    33  19  56 N24G37    30.18S
BURLINGTON CO  CLOUDY    39  20  46 N25G39    30.16S
LIMON CO       PTSUNNY   31  24  75 N21G28    30.19R WCI  18
$$

...UNOFFICIAL OBSERVATIONS...

CITY           SKY/WX    TMP DP  RH WIND       PRES   REMARKS
LENORA KS        N/A     41  32  70 NW12        N/A
NORTON KS      CLOUDY    39  23  52 NW26G32   30.12
SHARON SPRINGS   N/A     43  23  45 NW26G35     N/A
KIT CARSON CO    N/A     40  24  52 MISG        N/A
YUMA CO        PTSUNNY   36  18  48 N21G33    30.18R
$$




USA.gov is the U.S. government's official web portal to all federal, state and local government web resources and services.